DECAYED

OBJECT BJ, 63396 (Decayed)

Orbit data source: Space-Track

You're viewing an uncataloged RSO

Recently launched and/or uncataloged RSOs may have evolving metadata. Metadata may include the following, but is not limited to: Owner, Manufacturer, Bus, Motor, and Mission.

OBJECT BJ, 63396 was a satellite in SSO that was launched on Sat, 15 Mar 2025 UTC launched from the Air Force Western Test Range (AFWTR). Unknown objects in Earth's orbit typically refer to objects detected orbiting the Earth but have not yet been identified or cataloged. These objects could be anything from previously untracked satellites, spent rocket stages, debris from satellite collisions, or even natural meteoroids temporarily captured by Earth's gravity. This object's orbit decayed before it could be identified.

Loading next visibility...
Identifier
63396, 2025-052BJ
Orbit
Decayed
Country
Flag of TBDTBD
Related business
None
Manufacturer
Unknown (US)
Mission
Decayed Unknown
Bus & Motor
UNK, Unknown motor
Mass
~10 kg wet, ~10 kg dry
Launch date (UTC)
2025-03-15 (1 year ago)
Launch vehicle
Unknown
Launch site
Air Force Western Test Range (AFWTR)
Object type
Unknown
Shape & HBR
Box + 1 Pan, 0.3 m
Radar Cross Section
0.120 m², Medium (>0.1 m² and < 1m²)

Expand to show TLE details & history
Last TLE update: 1 year ago

TLE from 1 year ago
0 OBJECT BJ
1 63396U 25052BJ  25088.26217952  .00003893  00000-0  37899-3 0  9990
2 63396  97.7387 343.1835 0004247  78.4226 281.7470 14.93086536  2223
Epoch: 2025-03-29T06:17Z
TLE epoch observation values (Epoch: 2025-03-29T06:17:32.310Z)
Latitude
-0.00004°
Longitude
61.88957°
Altitude
590.761 km
Speed
7.565 km/s
True Right ascension
22h 52m 44s
True Declination
0° 00' 00"
Sunlit
Object was in daylight at epoch
Visualization orbit readout
Latitude
Unknown
Longitude
Unknown
Altitude
Unknown
Speed
Unknown
Apparent Right ascension
Unknown
Apparent Declination
Unknown
Sunlit
N/A
Visualization observer readout
Local Sidereal Time
09:12:11
Azimuth
Unknown
Elevation
Unknown
Doppler factor
Unknown
Orbital elements
Apogee altitude
588.292 km
Perigee altitude
582.377 km
Semi-major axis
6,963.472 km
Eccentricity
0.00042
Inclination
97.7387°
RAAN
343.1835°
Arg. of periapsis
78.4226°
True anomaly
281.69935°
Mean anomaly
281.747°
Eccentric anomaly
281.72317°
Mean motion
3.73512 °/min
Orbital period
96.38 mins
BSTAR
0.00037899
Loading maneuver chart data...
Computing Atmospheric mass density...
Loading historical data...
Loading historical data...
Loading historical data...
Loading historical data...
Loading historical data...
Loading historical data...
Loading historical data...

Documentation

Showing up to 5 results
|